Location: ??
(35.4770°N, 139.4870°E)
Time: 12:55:05
(UTC+00:00)

Daily predictions for brighter satellites

Satellite Brightness Start Highest point End
(mag) Time Altitude Azimuth Time Altitude Azimuth Time Altitude Azimuth
ATLAS CENTAUR R/B 1.9 12:06:05 36° NE 12:06:05 36° NE 12:08:22 10° NE
IRS-1C Rocket 4.4 12:02:54 27° S 12:05:40 60° WSW 12:10:52 10° NNW
Ariane Rocket 3.0 12:04:19 43° SE 12:05:57 71° ENE 12:11:02 10° N
Cosmos 468 Rocket 4.0 12:05:49 10° NNW 12:11:00 72° WSW 12:12:45 41° S
Timation 1 Rocket 4.3 12:05:15 10° SSW 12:11:12 83° WNW 12:17:11 10° NNE
Spot 1 4.3 12:06:52 10° NNE 12:11:25 61° ESE 12:12:09 54° SE
USA 245 3.2 12:11:26 58° WSW 12:11:30 58° W 12:15:09 10° NNW
Cosmos 2315 Rocket 4.2 12:09:49 10° N 12:16:06 57° E 12:18:00 42° SE
Cosmos 1850 Rocket 3.9 12:14:59 38° S 12:17:03 83° ESE 12:22:17 10° NNE
Cosmos 1733 Rocket 3.9 12:13:30 10° NNE 12:17:24 35° ENE 12:17:24 35° ENE
SPOT 3 Rocket 3.4 12:17:42 51° SSE 12:19:04 86° ENE 12:24:14 10° NNW
Cosmos 2228 Rocket 3.0 12:21:15 67° SSE 12:21:47 80° E 12:26:21 10° N
Cosmos 1441 Rocket 4.1 12:22:06 10° NNW 12:25:26 36° W 12:25:46 36° WSW
Meteor 1-22 Rocket 4.3 12:21:32 10° N 12:27:14 82° W 12:29:04 46° S
Terra 2.3 12:26:05 40° SSW 12:27:21 52° W 12:31:58 10° NNW
Okean 1-7 4.4 12:34:00 28° ENE 12:34:00 28° ENE 12:36:40 10° NNE
SL-14 R/B 3.5 12:33:50 62° WNW 12:33:50 62° WNW 12:37:25 10° N
Cosmos 1300 3.4 12:30:25 10° N 12:33:00 44° NNE 12:33:00 44° NNE
Cosmos 1932 4.4 12:32:58 51° SSE 12:34:13 60° ESE 12:40:25 10° NE
Cosmos 1741 Rocket 4.2 12:33:50 35° SW 12:36:01 69° WNW 12:41:18 10° NNE
Cosmos 968 Rocket 3.3 12:40:02 62° SSW 12:40:54 87° WNW 12:46:05 10° NNE
Cosmos 1980 Rocket 4.4 12:38:28 10° WNW 12:41:44 16° W 12:44:50 10° SW
RESURS DK-1 2.9 12:38:02 10° NNW 12:41:26 51° NNE 12:41:26 51° NNE
Cosmos 2322 Rocket 2.3 12:37:14 10° NNW 12:42:52 61° ENE 12:43:37 56° ESE
Meteor 1-21 4.2 12:41:38 51° SSW 12:43:12 83° W 12:49:02 10° N
SeaSat 1 3.6 12:49:16 30° SW 12:49:59 31° WSW 12:54:20 10° NW
Cosmos 2278 4.2 12:46:59 10° NNW 12:52:28 49° WSW 12:53:27 44° SW
Cosmos 1346 Rocket 3.5 12:48:37 10° N 12:51:29 49° N 12:51:29 49° N
CZ-2C R/B 4.5 12:51:42 10° NNE 12:54:49 41° NE 12:54:49 41° NE
Meteor 2-20 4.3 12:49:53 10° N 12:56:05 83° E 12:56:58 66° SSE
Tiangong 0.9 12:58:34 10° WNW 12:58:59 13° WNW 12:58:59 13° WNW
Cosmos 1241 Rocket 4.3 13:00:15 53° SSW 13:01:51 86° WNW 13:08:06 10° NNE
Cosmos 1862 Rocket 4.5 13:06:12 42° W 13:06:15 42° W 13:10:27 10° N
Meteor 2-10 Rocket 4.4 13:04:42 10° NNW 13:09:52 42° W 13:10:39 39° WSW
Cosmos 2219 Rocket 2.9 13:05:22 10° N 13:10:41 40° ENE 13:10:59 39° ENE
ATLAS 2AS CENTAUR R/B 2.8 13:06:42 10° NNW 13:13:23 61° NE 13:14:30 53° E
ARIANE 5 R/B 3.6 13:32:08 44° N 13:32:08 44° N 13:35:08 10° N
Meteor 2-20 Rocket 4.4 13:24:58 10° N 13:31:11 73° W 13:31:28 71° WSW
Cosmos 2360 Rocket 2.4 13:28:34 10° NNW 13:33:48 61° W 13:33:48 61° W
USA 281 3.0 13:34:34 74° SE 13:35:10 82° ENE 13:41:46 10° NNW
SJ 16-02 3.0 13:35:57 27° WNW 13:35:57 27° WNW 13:39:40 10° N
Cosmos 2333 Rocket 2.5 13:35:53 10° NNW 13:41:07 58° W 13:41:07 58° W
SL-16 R/B 3.8 13:38:05 10° NW 13:42:26 23° W 13:42:27 23° WSW
Atlas Centaur 2 3.6 13:39:53 10° W 13:45:44 40° SW 13:45:44 40° SW
Cosmos 1953 4.4 13:50:16 10° NNW 13:51:58 23° NW 13:51:58 23° NW
CZ-4C R/B 3.4 13:57:10 26° NE 13:57:10 26° NE 13:59:31 10° NE
H-2A R/B 4.0 13:59:19 36° NNW 13:59:19 36° NNW 14:01:54 10° NNW
Cosmos 1709 Rocket 4.0 14:01:59 77° ENE 14:01:59 77° ENE 14:08:06 10° N
Cosmos 2237 Rocket 4.0 14:03:05 10° N 14:07:18 21° ENE 14:08:21 20° ENE
Cosmos 2322 4.0 14:01:39 10° NNW 14:06:38 62° NNE 14:06:38 62° NNE
Cosmos 2227 Rocket 4.0 14:09:40 21° ENE 14:09:40 21° ENE 14:12:17 10° NE
SL-24 R/B - RUBIN 2 4.4 14:02:32 10° NNW 14:08:37 76° N 14:08:37 76° N
Cosmos 1375 Rocket 4.5 14:08:24 10° NNW 14:14:49 83° NNE 14:14:49 83° NNE
CENTAUR R/B 4.1 14:17:11 20° ENE 14:17:11 20° ENE 14:19:49 10° NE
Cosmos 839 Rocket 4.4 14:14:55 10° NW 14:20:23 51° W 14:20:23 51° W
ALOS 2 4.1 14:25:46 34° NNW 14:25:46 34° NNW 14:28:17 10° NNW
Cosmos 371 Rocket 4.4 14:25:48 41° N 14:25:48 41° N 14:29:00 10° NNE
Meteor 2-5 Rocket 4.0 14:25:33 69° NNE 14:25:33 69° NNE 14:30:42 10° N
Cosmos 2322 Rocket 4.3 14:23:08 10° WNW 14:25:25 15° W 14:25:25 15° W
Cosmos 2297 Rocket 2.6 14:29:04 56° NE 14:29:04 56° NE 14:33:30 10° NNE
H-2A R/B 3.9 14:29:23 10° NNE 14:31:24 27° NNE 14:31:24 27° NNE
COSMOS 2455 3.3 14:36:48 55° WNW 14:36:50 55° WNW 14:42:45 10° NNE
GEOS 3 Rocket 4.1 14:36:52 10° NNE 14:40:57 55° N 14:40:57 55° N
COSMOS 2428 3.3 14:41:32 10° NNW 14:45:54 51° NW 14:45:54 51° NW
Cosmos 2219 Rocket 3.9 14:49:50 10° NW 14:52:41 21° WNW 14:52:41 21° WNW
ATLAS 2AS CENTAUR R/B 4.3 14:58:52 10° WNW 15:01:55 19° W 15:01:55 19° W
Cosmos 2263 Rocket 3.7 15:05:29 25° E 15:05:29 25° E 15:08:57 10° NE
CZ-3 Stage 3 4.2 14:47:14 10° W 15:02:36 38° WSW 15:02:36 38° WSW
Cosmos 2098 Rocket 4.2 14:59:10 10° NNW 15:05:17 65° WNW 15:05:17 65° WNW
Cosmos 2181 Rocket 4.0 14:59:51 10° N 15:05:31 74° NW 15:05:31 74° NW
Cosmos 2074 Rocket 4.0 15:15:42 77° NW 15:15:42 77° NW 15:21:34 10° N
SL-4 R/B 4.3 15:14:22 10° NNW 15:17:47 23° NNE 15:19:05 20° ENE
Resurs 1-4 Rocket 4.3 15:19:15 10° ENE 15:21:53 14° E 15:22:01 14° E
Cosmos 1898 Rocket 4.4 15:36:55 41° ENE 15:36:55 41° ENE 15:40:58 10° NNE
SL-16 R/B 3.4 15:38:00 10° N 15:43:16 38° ENE 15:45:02 30° E
CZ-4C R/B 4.1 15:42:12 14° WNW 15:43:40 16° NW 15:46:52 10° N
Cosmos 2082 3.9 15:48:44 63° E 15:48:44 63° E 15:53:53 10° NNE
Cosmos 2227 Rocket 3.0 15:51:27 39° WNW 15:51:31 39° WNW 15:56:49 10° N
Cosmos 2237 Rocket 3.0 15:46:10 10° NNW 15:50:08 40° WNW 15:50:08 40° WNW
Meteor 1-21 Rocket 4.3 15:52:29 74° NW 15:52:29 74° NW 15:57:59 10° N
Nadezhda 3 Rocket 3.9 15:50:55 10° NNW 15:57:07 70° W 15:57:07 70° W
Cosmos 1975 Rocket 4.0 16:00:12 46° N 16:00:12 46° N 16:03:20 10° N
Cosmos 2366 rocket 4.3 16:02:53 52° SE 16:03:54 58° E 16:10:03 10° NNE
CZ-2C R/B 4.3 16:01:44 20° ESE 16:04:10 28° ENE 16:08:39 10° N
CENTAUR R/B 3.0 16:04:18 41° WNW 16:05:07 43° NW 16:11:23 10° NNE
Cosmos 2219 3.6 16:11:41 49° WNW 16:11:49 49° WNW 16:17:16 10° N
Cosmos 2297 Rocket 4.4 16:10:50 12° WNW 16:12:31 14° NW 16:15:20 10° NNW
MOZ.5/SAFIR/RUBIN 5/SL-8 4.0 16:15:07 68° NE 16:15:07 68° NE 16:19:27 10° N
CZ-2D R/B 2.7 16:12:24 10° NNE 16:17:31 46° E 16:18:04 44° ESE
Cosmos 1455 Rocket 3.9 16:14:01 10° NNW 16:17:10 43° NNW 16:17:10 43° NNW
CZ-2C R/B 3.9 16:14:51 10° NNE 16:19:51 39° E 16:20:37 37° ESE
IDEFIX/ARIANE 42P 2.5 16:14:50 10° NNE 16:20:04 72° ESE 16:20:16 71° ESE
Meteor 2-1 Rocket 4.2 16:21:53 10° N 16:27:48 84° E 16:28:48 63° SSE
Cosmos 1536 Rocket 4.4 16:28:22 43° E 16:28:30 43° E 16:32:43 10° NNE
NPP 3.5 16:24:26 10° NNE 16:29:51 86° E 16:30:21 75° S
Cosmos 1869 4.1 16:31:33 10° N 16:34:12 44° NNE 16:34:12 44° NNE
SL-8 Rocket 3.9 16:35:32 58° WSW 16:36:23 65° W 16:42:31 10° N
H-2A R/B 3.8 16:33:24 10° N 16:36:41 59° N 16:36:41 59° N
Cosmos 1437 Rocket 3.8 16:42:31 38° E 16:42:31 38° E 16:46:02 10° NNE
NOSS 3-2 (A) 4.3 16:44:45 27° WNW 16:46:07 31° NW 16:51:16 10° NNE
Cosmos 1867 4.1 16:45:38 43° SSE 16:46:39 48° ESE 16:51:54 10° NE
COSMOS 2441 4.4 16:42:58 10° NNE 16:47:46 72° ESE 16:48:26 62° SSE
Cosmos 2263 Rocket 3.1 16:47:09 33° W 16:48:02 35° WNW 16:53:07 10° N
NOSS 3-2 (C) 3.1 16:49:54 56° WSW 16:50:44 66° NW 16:56:30 10° NNE
ALOS 3.5 16:48:32 10° NNE 16:52:43 33° E 16:54:17 26° SE
ADEOS II 2.2 16:47:39 10° NNE 16:52:52 66° ESE 16:54:16 47° SSE
MSX 3.9 16:48:36 10° N 16:54:17 66° WNW 16:55:33 51° SW
SL-4 R/B 4.1 16:52:35 10° NW 16:53:40 17° WNW 16:53:40 17° WNW
Cosmos 1727 Rocket 4.3 16:52:10 10° N 16:58:28 65° E 17:02:38 22° SSE
BREEZE-M DEB (TANK) 4.3 16:56:39 10° NW 16:57:15 14° NW 16:57:15 14° NW
USA 267 3.2 16:53:29 10° NE 17:00:03 89° SE 17:02:35 41° SW
EXPRESS MD2 3.4 16:59:11 35° NNW 17:00:28 68° NE 17:05:41 10° ESE
Resurs 1-4 Rocket 2.2 16:56:48 10° N 17:02:00 61° WNW 17:03:04 50° WSW
Cosmos 1844 Rocket 2.9 17:06:17 38° S 17:08:18 63° ESE 17:13:48 10° NNE
BREEZE-M DEB (TANK) 2.9 17:06:40 10° NNW 17:08:57 50° NE 17:14:21 10° ESE
ASTEX 1 4.1 17:06:07 22° SSE 17:09:00 51° E 17:13:42 10° N
Cosmos 923 Rocket 4.0 17:06:13 10° NNW 17:11:22 59° WSW 17:12:26 48° SSW
SL-16 R/B 3.3 17:22:31 10° NW 17:26:51 26° W 17:26:51 26° W
Cosmos 1603 4.3 17:26:26 10° NNW 17:32:07 58° ENE 17:37:43 10° SE
Meteor 2-13 Rocket 4.4 17:28:41 10° NNW 17:34:42 63° W 17:38:21 24° SSW
Cosmos 1943 3.1 17:38:17 10° NNW 17:43:50 67° WSW 17:49:23 10° S
CZ-2C R/B 3.4 17:43:13 28° WSW 17:44:16 30° W 17:48:55 10° NW
Cosmos 2228 4.2 17:41:26 10° NW 17:44:56 25° W 17:45:08 25° W
Cosmos 1818 3.6 17:43:27 10° NW 17:48:47 55° WSW 17:54:02 10° S
GOES 2 Rocket 4.1 17:53:31 25° SSW 17:53:47 25° S 17:57:40 10° SE
Cosmos 1680 Rocket 4.3 17:49:31 10° NW 17:54:02 31° W 17:55:46 25° SW
Cosmos 1605 Rocket 4.4 17:50:03 10° S 17:56:10 62° E 18:02:14 10° NNE
USA 238 DEB 4.1 17:52:55 21° WSW 17:56:40 45° NW 18:02:57 10° NNE
USA 238 4.1 17:52:57 22° WSW 17:56:42 45° NW 18:03:00 10° NNE
CZ-2D R/B 3.7 17:53:22 10° NNW 17:57:06 20° WNW 17:59:21 15° W
Iridium 2 3.0 17:59:18 42° W 17:59:20 42° W 18:01:43 10° N
H-2A R/B 4.4 17:57:11 10° NE 18:00:59 20° E 18:04:41 10° SE
Cosmos 1812 2.9 17:57:45 10° N 18:01:19 64° E 18:04:50 10° SSE
SL-16 R/B 2.7 17:56:14 10° S 18:02:16 55° WSW 18:08:24 10° NNW
Delta 2 Rocket 3.3 17:59:55 16° W 18:03:09 89° S 18:07:37 10° E
Cosmos 1606 Rocket 3.9 18:01:08 10° NNW 18:05:22 45° W 18:08:14 19° SSW
SAR-Lupe-4 4.4 18:02:24 10° N 18:05:40 35° WNW 18:07:06 24° WSW
IRAS Rocket 4.5 18:00:27 10° N 18:05:47 54° WNW 18:09:40 18° SW
IRS-1D 4.2 18:06:00 10° NNE 18:11:03 53° E 18:15:58 10° S
UNK 3.8 18:08:55 10° S 18:13:25 56° W 18:17:57 10° NNW
Cosmos 921 Rocket 3.1 18:11:11 10° NNW 18:15:17 51° WSW 18:19:18 10° S
Cosmos 1844 4.5 18:12:08 18° WSW 18:15:58 39° WNW 18:21:22 10° N
Cosmos 1238 Rocket 2.8 18:14:05 10° N 18:17:24 58° E 18:20:22 10° SSE
NOSS 2-2 (E) 4.5 18:15:40 10° S 18:19:00 30° ESE 18:21:52 10° NE
Cosmos 2123 Rocket 4.1 18:14:21 10° NNW 18:20:26 59° W 18:26:29 10° S
Cosmos 1726 Rocket 4.1 18:17:23 10° NNW 18:21:32 40° W 18:25:27 11° SSW
Cosmos 1934 Rocket 4.4 18:16:41 15° SSW 18:21:44 46° W 18:27:49 10° N
Cosmos 1544 2.1 18:20:33 19° SSW 18:22:16 68° W 18:24:53 10° N
NOSS 2-3 (D) 4.5 18:22:45 10° S 18:26:10 34° ESE 18:29:34 10° NE
SEDSat Delta rocket 3.2 18:23:43 16° WSW 18:26:37 46° S 18:30:35 10° ESE
ALOS 3.8 18:26:16 10° NNW 18:29:39 20° WNW 18:32:34 12° WSW
Envisat 3.4 18:25:18 10° N 18:30:11 48° WNW 18:34:54 11° SW
CZ-4 R/B 4.2 18:27:01 10° N 18:31:47 51° WNW 18:36:35 10° SSW
ADEOS II 4.0 18:29:18 10° NNW 18:31:52 14° WNW 18:34:26 10° W
Cosmos 1048 Rocket 4.1 18:27:23 10° NNW 18:32:29 56° WSW 18:37:38 10° S
Meteor 2-19 Rocket 4.5 18:26:57 10° NNW 18:33:04 70° W 18:39:11 10° S
Cosmos-2242 4.0 18:29:03 10° N 18:33:14 48° E 18:37:21 10° SSE
BREEZE-M DEB (TANK) 3.8 18:33:02 13° WSW 18:36:01 73° NNW 18:47:24 10° NE
Cosmos 1125 Rocket 4.2 18:32:16 13° SW 18:36:39 39° WNW 18:41:36 10° N
YAOGAN 6 2.4 18:34:07 10° N 18:37:16 56° WNW 18:40:22 10° SSW
Cosmos 1862 4.3 18:39:31 10° SSE 18:43:09 46° E 18:46:48 10° NNE
Cosmos 2150 Rocket 4.1 18:39:07 10° SSW 18:44:15 64° WNW 18:49:30 10° N
Cosmos 1602 Rocket 3.8 18:43:55 10° S 18:48:21 79° E 18:52:48 10° N
DMSP B5D2-2 4.1 18:43:12 10° S 18:48:27 77° WSW 18:53:44 10° NNW
ATLAS 5 CENTAUR R/B 0.8 18:48:01 10° SSW 18:51:15 81° WNW 18:54:39 10° NNE
Cosmos 1844 Rocket 4.5 18:49:07 10° W 18:52:37 17° NW 18:56:06 10° NNW
NOSS 2-3 (E) 3.1 18:49:34 10° SSW 18:53:15 90° S 18:57:00 10° NNE
Cosmos 1666 4.0 18:51:40 10° SSE 18:54:51 36° E 18:58:02 10° NNE
Cosmos 1378 4.3 18:51:53 10° N 18:54:59 40° E 18:58:04 10° SSE
Cosmos 2058 4.4 18:52:05 10° SW 18:55:06 20° WNW 18:58:08 10° NNW
Cosmos 2058 Rocket 3.8 18:51:18 10° NNW 18:55:16 33° W 18:59:10 10° SSW
NOSS 2-2 (C) 3.3 18:52:16 10° SW 18:55:40 46° WNW 18:58:41 10° NNE
NOSS 2-3 (C) 3.1 18:54:32 10° SW 18:58:11 79° WNW 19:01:55 10° NNE
Cosmos 1758 Rocket 3.7 18:55:56 10° SSW 19:00:19 63° W 19:04:43 10° N
Cosmos 1271 Rocket 2.5 18:56:49 10° S 19:00:24 90° ESE 19:03:59 10° N
CZ-2C R/B 3.1 18:56:20 10° N 19:00:25 33° WNW 19:04:31 10° SW
Cosmos 1459 Rocket 4.4 18:57:08 10° S 19:03:16 71° E 19:09:32 10° N
